SCP
0 0 0 0 0 0 1 1 1 1 1 1 2 2 2 1 1 2 2 1 1 2 1 1 1 1 1 1 1 1 1 1 1 0 0 0 0 0 0 0 0 0 0
0 0 0 0 0 0 1 1 1 1 1 1 1 1 1 1 2 2 2 2 1 1 1 1 1 1 1 1 1 1 1 1 0 0 0 0 0 0 0 0 0 0 0
0 0 0 0 0 0 1 1 1 1 1 1 1 1 1 1 2 2 2 1 1 1 1 1 1 1 1 1 1 1 1 1 0 0 0 0 0 0 0 0 0 0 0
0 0 0 0 1 1 1 1 1 1 1 1 1 1 1 1 2 2 1 1 1 1 1 1 1 1 1 1 1 1 1 1 1 0 0 0 0 0 0 0 0 0 0
0 0 0 1 1 1 1 1 1 1 1 1 1 1 1 1 1 1 1 2 2 1 1 1 1 1 1 1 1 1 1 1 1 0 0 0 0 0 0 0 0 0 0
0 0 1 1 1 1 1 1 1 1 1 1 1 1 1 1 1 1 1 2 1 1 1 1 1 1 1 1 1 1 1 1 1 0 0 0 0 0 0 0 0 0 0
0 0 1 1 1 1 1 1 1 1 1 1 1 1 1 1 1 1 1 1 1 1 1 1 1 1 1 1 1 1 1 1 0 0 0 0 0 0 0 0 0 0 0
0 0 0 1 1 1 1 1 1 1 1 1 1 1 1 1 1 1 1 1 1 1 1 1 1 1 1 1 1 1 1 1 0 0 0 0 0 0 0 0 0 0 0
0 0 0 1 1 1 1 1 1 1 1 1 1 1 1 1 1 1 1 1 1 1 1 1 1 1 1 1 1 1 1 1 0 0 0 0 0 0 0 0 0 0 0
0 0 0 1 1 1 1 1 1 1 1 1 1 1 1 1 1 1 1 1 1 1 1 1 1 1 1 1 1 1 1 0 0 0 0 0 0 0 0 0 0 0 0
0 0 0 1 1 1 1 1 1 1 1 1 1 1 1 1 1 1 1 1 1 1 1 1 1 1 1 1 1 1 1 0 0 0 0 0 0 0 0 0 0 0 0
0 0 0 0 1 1 1 1 1 0 0 0 0 0 1 1 1 1 1 1 1 1 1 1 1 1 1 1 1 1 0 0 0 0 0 0 0 0 0 0 0 0 0
0 0 0 0 0 1 1 0 0 0 0 0 0 0 0 0 1 1 1 1 1 1 1 1 1 1 0 0 0 0 0 0 0 0 0 0 0 0 0 0 0 0 0
1 0 0 0 0 0 0 0 0 0 0 0 0 0 0 0 0 1 1 1 1 1 1 1 1 0 0 0 0 0 0 0 0 0 0 0 0 0 0 0 0 0 0
1 1 0 0 0 0 0 0 0 0 0 0 0 0 0 0 0 0 0 0 0 0 0 0 0 0 0 0 0 0 0 0 0 0 0 0 1 0 0 0 1 1 1
1 1 1 1 1 1 0 0 0 0 0 0 0 0 0 0 0 0 0 0 0 0 0 0 0 0 0 0 0 0 0 0 0 0 0 0 1 1 1 1 1 1 1
1 1 1 1 1 1 1 1 0 0 0 0 0 0 0 0 0 0 0 0 0 0 0 0 0 0 0 0 0 0 0 0 0 0 0 0 0 1 1 1 1 1 1
1 1 1 1 1 1 1 1 1 1 0 0 0 0 0 0 0 0 0 0 0 0 0 0 0 0 0 0 0 0 0 0 0 0 0 0 0 1 1 1 1 1 1
1 1 1 2 2 2 2 1 1 1 1 1 1 1 0 0 0 0 0 0 0 0 0 0 0 0 0 0 0 0 0 0 0 0 0 0 0 0 1 1 1 1 1
1 1 2 2 3 4 3 2 1 1 1 1 1 1 1 0 0 0 0 0 0 0 0 0 0 0 0 0 0 0 0 0 0 0 0 0 0 0 1 1 1 1 1
2 2 3 3 4 5 4 3 2 1 1 1 1 1 1 0 0 0 0 0 0 0 0 0 0 0 0 0 0 0 0 0 0 0 0 0 0 0 0 0 0 0 0
2 3 3 4 4 5 5 3 2 1 1 1 1 1 0 0 0 0 0 0 0 0 0 0 0 0 0 0 0 0 0 0 0 0 0 0 0 0 0 0 0 0 0
2 2 3 3 3 4 4 3 2 1 1 1 1 0 0 0 0 0 0 0 0 0 0 0 0 0 0 0 0 0 0 0 0 0 0 0 0 0 0 0 0 0 1
2 2 2 2 3 3 3 3 2 1 1 1 0 0 0 0 0 1 1 1 0 0 0 0 0 0 0 1 1 1 1 1 1 1 1 1 1 1 1 1 1 1 1
2 2 1 1 2 2 2 2 1 1 1 0 0 0 0 0 0 0 1 1 1 1 1 1 1 1 1 1 1 1 1 1 1 1 1 1 1 1 1 1 1 1 1
2 2 1 1 1 2 2 2 1 1 1 0 0 0 0 0 0 0 1 1 1 1 1 1 1 1 1 1 1 1 1 1 1 1 1 1 1 1 1 1 1 1 1
Wind_Speed
1 2 2 4 6 7 8 8 9 9 10 11 12 13 13 14 15 16 17 17 17 17 18 18 18 18 18 18 18 18 18 17 17 17 16 16 16 16 16 16 14 11 16
1 1 1 4 6 7 8 8 9 9 10 11 12 13 13 14 14 15 16 16 17 17 18 18 18 18 18 18 18 17 17 17 16 16 16 15 15 15 15 15 14 10 15
1 1 1 5 6 7 8 9 9 9 10 11 12 12 13 13 14 15 16 16 16 17 17 17 17 18 17 17 17 17 16 16 16 16 14 9 11 14 14 14 14 14 14
1 1 2 6 7 7 8 9 10 10 11 11 11 12 13 13 13 14 15 16 16 16 17 17 17 17 16 16 16 16 15 15 15 14 8 7 8 13 14 14 14 14 14
2 1 2 6 7 7 8 9 9 10 10 10 11 11 12 12 13 14 14 15 16 16 16 16 16 16 16 15 15 14 14 13 13 11 7 6 6 12 13 13 13 13 13
2 1 2 6 7 7 7 8 9 9 9 10 10 11 11 12 12 13 14 14 15 15 15 15 15 15 14 14 13 13 13 13 11 8 7 6 6 11 13 13 12 12 12
2 1 2 6 6 7 7 8 9 9 9 9 10 11 11 12 12 12 13 13 14 14 14 14 14 14 13 13 12 12 12 13 8 7 6 5 6 10 11 12 11 11 11
2 1 2 4 5 6 7 8 8 9 10 10 11 11 12 11 11 11 12 12 13 13 13 13 13 12 12 11 11 11 11 11 9 7 6 5 8 9 10 10 10 10 10
2 2 2 2 3 5 6 7 7 8 9 9 9 10 11 11 10 10 10 11 12 11 12 11 11 11 10 9 9 10 10 10 7 5 6 4 8 9 10 10 10 9 9
2 2 2 2 3 3 3 5 7 7 8 8 8 9 10 10 9 9 8 9 10 10 10 10 9 9 9 8 8 9 10 8 6 5 4 5 9 9 9 9 9 9 9
1 1 1 2 2 2 2 2 4 5 6 6 5 8 7 4 4 5 6 8 8 8 8 8 8 8 7 6 7 8 7 4 5 3 3 6 8 9 9 9 9 8 8
2 2 0 1 1 1 1 2 2 3 3 4 3 4 4 3 3 4 5 6 7 7 7 7 7 6 5 3 4 5 3 4 4 3 4 8 8 9 9 9 8 8 8
3 2 2 1 1 1 1 2 1 2 2 2 2 3 3 3 2 2 2 2 3 4 3 4 3 2 2 2 1 2 3 3 2 3 4 8 8 9 9 9 9 8 8
3 3 2 2 2 1 1 1 1 1 1 1 1 2 2 1 1 1 1 1 1 1 2 2 1 1 1 1 2 2 3 2 2 2 4 8 8 9 9 9 9 9 8
4 4 3 3 3 2 1 1 1 1 0 0 1 1 2 1 1 1 0 0 0 1 1 1 1 1 1 1 1 2 2 3 3 3 2 7 8 8 9 9 9 9 9
5 4 3 4 3 3 2 1 1 1 1 0 0 0 1 1 1 1 0 0 0 0 1 1 1 1 0 0 1 1 2 2 2 3 2 3 6 8 9 9 10 10 10
5 5 4 4 3 3 2 2 1 1 1 1 1 0 1 2 2 1 1 0 1 1 1 1 1 1 1 1 1 1 1 2 2 2 2 2 2 5 7 8 9 9 10
5 5 4 5 4 3 2 2 1 1 1 1 1 1 1 2 2 2 1 1 1 1 1 1 1 1 1 1 1 1 1 1 1 2 1 1 1 1 3 6 6 6 8
6 6 5 4 5 4 2 1 1 1 1 1 1 1 1 1 2 2 1 1 1 1 1 1 1 1 1 1 1 1 1 1 1 2 2 2 2 1 1 2 3 3 5
5 5 5 4 4 3 2 1 1 1 0 0 1 1 1 1 2 2 1 1 1 1 1 1 1 1 1 2 2 2 2 1 1 1 1 1 1 2 1 1 1 2 3
5 5 5 5 4 3 2 2 1 1 0 0 0 1 1 1 2 2 1 1 1 1 1 2 2 2 1 2 2 1 2 2 2 1 1 0 0 1 1 1 1 1 1
6 6 5 5 5 4 3 2 2 1 1 1 0 0 1 1 2 2 2 1 1 1 1 2 2 2 1 2 2 1 0 1 2 1 1 1 0 0 0 0 0 1 1
7 8 7 6 6 5 4 2 2 2 1 1 1 0 0 1 1 1 2 1 1 2 2 2 2 3 2 1 1 2 2 2 0 1 1 1 1 1 1 0 0 0 1
9 7 6 6 6 5 5 4 4 3 2 2 1 1 0 1 1 1 2 1 1 1 1 2 2 2 3 2 1 1 1 2 2 1 1 1 2 1 1 1 1 1 0
8 7 6 6 6 5 5 5 4 3 2 1 1 1 0 0 0 1 1 1 1 1 1 1 1 2 2 2 2 2 1 1 1 2 1 0 1 1 1 1 1 1 1
7 7 6 6 6 5 6 5 6 5 4 3 2 2 1 0 0 1 1 1 1 1 1 1 2 2 2 2 2 2 2 2 2 2 2 1 1 0 1 1 1 1 1
Wind_Direction
295 301 8 45 56 56 57 60 66 70 78 83 85 89 91 95 98 102 105 105 105 106 108 110 111 111 112 113 112 112 113 113 113 114 115 115 114 113 112 110 109 111 114
226 293 64 67 66 63 62 63 68 74 82 87 90 92 94 95 98 101 103 104 106 107 109 109 110 110 112 113 113 113 113 113 114 115 116 115 115 113 112 112 113 117 118
90 351 88 83 75 68 65 65 69 76 86 91 94 95 96 97 99 100 104 107 107 108 109 109 111 111 113 114 114 114 114 114 114 114 109 105 113 115 115 116 117 118 118
102 52 94 88 78 75 72 69 71 78 87 90 94 97 98 99 101 103 104 106 109 110 110 109 109 111 114 114 115 116 115 114 115 111 102 107 115 120 119 120 120 121 121
89 50 103 91 81 77 76 74 72 79 87 91 95 97 98 100 102 105 106 107 108 109 111 109 109 109 111 113 115 117 117 117 115 106 101 99 106 124 123 124 124 125 126
88 50 96 93 86 81 80 77 75 81 91 93 97 97 99 102 104 106 108 107 108 109 111 111 110 109 110 112 114 117 120 119 110 107 106 108 114 128 129 129 129 129 128
102 53 87 97 92 86 81 80 80 78 85 94 99 99 101 103 105 107 108 108 108 108 110 111 111 110 112 114 116 118 122 122 117 115 113 115 125 132 133 133 133 132 132
108 69 72 100 97 90 85 83 85 84 79 88 97 100 102 103 104 107 109 110 110 109 112 113 113 112 111 111 115 119 124 126 124 124 122 127 138 139 140 140 139 139 139
81 71 50 50 73 89 89 85 86 88 85 83 94 101 103 103 103 105 108 110 111 111 114 116 116 113 110 110 116 123 125 127 122 130 136 137 147 149 149 150 150 150 149
62 55 54 46 43 43 60 90 89 90 88 88 91 104 105 102 104 106 106 112 114 115 115 116 115 113 111 112 117 124 128 122 124 133 137 155 159 158 156 156 160 161 159
139 37 46 61 56 48 42 81 85 91 87 83 80 95 91 70 71 95 106 109 109 112 115 115 113 111 108 109 117 127 125 126 134 140 149 166 170 170 166 164 165 166 168
206 211 180 116 100 76 61 63 47 57 58 57 54 68 78 73 63 77 91 105 106 107 109 111 112 107 97 94 111 117 122 143 146 156 172 178 182 180 177 174 176 176 177
198 195 181 181 151 116 47 78 58 50 52 55 61 74 76 70 57 52 53 64 67 83 80 88 87 83 96 109 111 132 150 153 162 173 183 188 190 190 188 185 187 187 187
181 201 190 183 173 176 116 99 98 75 58 50 51 85 91 88 73 63 51 44 50 67 79 82 90 82 97 119 138 155 165 166 171 176 193 196 196 197 197 195 197 198 198
189 199 191 181 181 181 156 162 127 125 103 61 47 94 127 125 123 109 88 68 81 90 103 106 102 96 87 104 150 162 171 177 182 184 195 205 202 204 206 207 206 208 208
194 194 182 175 180 173 173 183 165 160 159 124 72 144 146 145 147 141 126 96 98 108 103 112 132 115 80 113 116 140 158 162 174 182 191 207 208 209 214 217 216 214 214
187 182 177 179 173 172 183 193 184 181 163 169 217 202 162 157 162 159 155 174 193 142 123 104 103 112 129 107 87 99 138 146 159 172 184 194 212 219 219 223 227 226 224
174 174 185 180 160 166 180 180 176 166 167 190 190 187 179 172 167 164 166 206 172 134 139 148 140 100 85 101 107 96 107 137 156 160 169 179 183 221 236 231 231 234 232
176 173 178 173 157 167 175 155 150 130 170 185 165 167 191 182 167 158 169 194 151 138 153 172 138 139 133 120 117 95 86 134 166 166 169 180 186 198 226 258 246 241 240
174 170 173 164 158 153 138 102 87 74 81 133 151 185 185 187 168 155 164 161 141 137 140 143 141 115 132 127 96 65 51 57 95 140 191 187 184 195 198 224 255 270 260
170 171 175 169 169 148 136 141 137 176 208 235 198 184 183 184 164 154 165 144 143 157 174 153 140 124 123 124 99 64 38 52 60 50 67 96 189 203 177 209 232 246 275
183 183 183 184 178 172 165 154 152 150 166 185 185 104 160 166 175 172 165 163 156 153 151 157 155 150 165 159 137 126 52 14 30 42 57 83 31 44 81 248 244 260 274
191 192 193 191 185 179 164 130 104 77 52 47 49 36 261 165 156 149 159 161 168 171 176 185 178 172 182 193 176 162 166 198 233 20 36 55 58 49 358 340 302 261 247
200 194 190 186 185 180 166 162 161 164 185 206 186 175 149 141 151 153 155 159 166 167 184 205 183 181 173 188 195 197 183 161 164 162 31 43 53 47 12 5 10 11 27
193 186 185 179 186 182 175 174 170 179 190 171 146 143 112 38 87 160 158 155 172 184 201 199 184 186 182 186 185 173 154 135 153 167 194 164 50 27 26 34 29 19 36
184 179 177 178 191 184 181 181 183 188 186 175 179 180 185 187 249 197 167 162 174 185 202 208 199 195 198 195 197 189 178 175 179 172 182 179 185 29 36 37 36 24 27